Regional Weather Roundup
Issued by NWS

Home | Current Version | Previous Version | Text Only | Print | Product List | Glossary On
Versions: 1 2 3 4 5 6 7 8 9 10 11 12 13 14 15 16 17 18 19 20 21 22 23 24 25 26 27 28 29 30 31 32 33 34 35 36 37 38 39 40 41 42 43 44 45 46 47 48 49 50
000
ASUS43 KTOP 210208
RWRKS

WEATHER ROUNDUP FOR KANSAS
NATIONAL WEATHER SERVICE GOODLAND KS
900 PM CDT SUN APR 20 2014

NOTE:  "FAIR" INDICATES FEW OR NO CLOUDS BELOW 12,000 FEET WITH NO
SIGNIFICANT WEATHER AND/OR OBSTRUCTIONS TO VISIBILITY.

KSZ001>006-013>018-027>032-041>047-210300-
NORTHWEST KANSAS

CITY           SKY/WX    TMP DP  RH WIND       PRES   REMARKS
GOODLAND       PTCLDY    59  46  62 N6        29.95R
HAYS           MOCLDY    66  54  63 SE17G23   29.93R
HILL CITY      TSTM      59  57  93 SE17      29.96F FOG
RUSSELL        MOCLDY    67  56  67 S16       29.92R
$$

KSZ061>065-074>080-084>089-210300-
SOUTHWEST KANSAS

CITY           SKY/WX    TMP DP  RH WIND       PRES   REMARKS
DODGE CITY     CLOUDY    61  54  77 S9        29.95R
ELKHART          N/A     61  49  65 SW2         N/A
GARDEN CITY    CLOUDY    63  52  67 SE14      29.93R
GREAT BEND     PTCLDY    64  54  68 S14       29.94R
LIBERAL        CLOUDY    57  45  62 S14       29.97R
PRATT          CLOUDY    64  52  63 S12       29.97S
$$

KSZ066>073-081>083-090>101-210300-
SOUTHEAST KANSAS

CITY           SKY/WX    TMP DP  RH WIND       PRES   REMARKS
CHANUTE        CLOUDY    65  54  67 S7        30.01S
COFFEYVILLE    CLOUDY    68  55  63 S7        30.02R
HUTCHINSON     PTCLDY    67  55  65 S13       29.96R
MEDICINE LODGE   N/A     68  54  60 S12G20    29.97R
NEWTON         MOCLDY    64  52  63 S8        30.01R
PARSONS        CLOUDY    68  54  60 SE3       30.02S
WICHITA INTL   MOCLDY    67  55  65 S15       29.98R
WICHITA JABRA  CLOUDY    68  56  65 S17G25    29.98R
WICHITA MCCONL CLOUDY    68  59  72 S18G24    29.99R
WINFIELD       CLOUDY    67  55  65 S12       30.01R
$$

KSZ007>012-019>026-033>040-048>060-102>105-210300-
NORTHEAST KANSAS

CITY           SKY/WX    TMP DP  RH WIND       PRES   REMARKS
CONCORDIA      CLOUDY    64  55  72 SE12      29.97R
EMPORIA        CLOUDY    65  55  70 S8        29.98S
LAWRENCE       CLOUDY    68  55  63 S5        30.00R
MANHATTAN      CLOUDY    64  58  80 CALM      29.97R
OLATHE IND     CLOUDY    66  54  65 S7        30.02R
OLATHE EXE     CLOUDY    65  54  67 S7        30.01R
SALINA         CLOUDY    66  56  70 SE7       29.96R
TOPEKA BILLARD CLOUDY    70  56  61 S3        30.00R
TOPEKA FORBES  CLOUDY    66  55  67 S6        29.99R
$$



USA.gov is the U.S. government's official web portal to all federal, state and local government web resources and services.